Date String (YYYY-MM-DD hh:mm:ss) UTC,Instrument flags,absolute air pressure of the measurement (hPa),sample flow rate (lpm),inlet stack bypass flow (lpm),air temperature of the measurement (°C),ambient temperature measured by the external sensor (°C),aerosol sample conditioner tube jacket temperature (°C),OPC LED temperature (°C),internal box temperature (°C),relative humidity of the measurement (%),span deviation,mass concentration of particles derived from Lorenz-Mie calculation of OPC scattering (μg/m³),mass concentration of particles derived from Lorenz-Mie calculation of OPC scattering (μg/m³),mass concentration of particles derived from Lorenz-Mie calculation of OPC scattering (μg/m³)
DateTimeUTC,F1_M11,P_M11,Q1_M11,Q2_M11,T1_M11,T2_M11,T3_M11,T4_M11,T5_M11,U1_M11,ZSPAN_M11,X2_M11,X0_M11,X1_M11
2023-11-27 06:00:00,SystemResetWarning,0832.3,5.00,000.00,018.7,018.0,000.0,027.2,020.0,12.3,0000.0,0004.03,0005.84,0003.84
2023-11-27 06:01:00,SystemResetWarning,0832.3,5.00,000.00,018.7,017.9,000.0,027.3,020.0,12.3,0000.0,0004.02,0005.82,0003.83
2023-11-27 06:02:00,SystemResetWarning,0832.4,5.00,000.00,018.7,017.8,000.0,027.3,020.0,12.3,0000.0,0004.05,0005.97,0003.84
2023-11-27 06:03:00,SystemResetWarning,0832.3,5.00,000.00,018.7,017.8,000.0,027.3,020.0,12.3,0000.0,0004.05,0005.89,0003.83
2023-11-27 06:04:00,SystemResetWarning,0832.3,5.00,000.00,018.7,017.7,000.0,027.3,020.0,12.3,0000.0,0004.07,0005.89,0003.84
2023-11-27 06:05:00,SystemResetWarning,0832.3,5.01,000.00,018.7,017.7,000.0,027.3,020.0,12.3,0000.0,0004.07,0005.93,0003.83
2023-11-27 06:06:00,SystemResetWarning,0832.3,5.00,000.00,018.7,017.6,000.0,027.3,020.0,12.3,0000.0,0004.07,0006.00,0003.82
2023-11-27 06:07:00,SystemResetWarning,0832.3,4.99,000.00,018.7,017.6,000.0,027.3,020.0,12.3,0000.0,0004.06,0005.97,0003.80
2023-11-27 06:08:00,SystemResetWarning,0832.3,4.99,000.00,018.7,017.6,000.0,027.3,020.0,12.3,0000.0,0004.05,0005.90,0003.79
2023-11-27 06:09:00,SystemResetWarning,0832.3,5.00,000.00,018.7,017.6,000.0,027.2,020.2,12.3,0000.0,0004.04,0005.89,0003.78
2023-11-27 06:10:00,SystemResetWarning,0832.3,5.01,000.00,018.8,018.3,000.0,027.2,020.6,12.3,0000.0,0004.03,0005.93,0003.77
2023-11-27 06:11:00,SystemResetWarning,0832.3,4.99,000.00,018.9,018.9,000.0,027.2,020.8,12.2,0000.0,0004.00,0005.80,0003.76
2023-11-27 06:12:00,SystemResetWarning,0832.3,4.99,000.00,018.9,018.8,000.0,027.2,020.4,12.1,0000.0,0004.00,0005.75,0003.76
2023-11-27 06:13:00,SystemResetWarning,0832.3,5.01,000.00,018.9,018.7,000.0,027.2,020.1,12.1,0000.0,0003.97,0005.66,0003.75
2023-11-27 06:14:00,SystemResetWarning,0832.3,5.01,000.00,018.8,018.5,000.0,027.2,020.0,12.2,0000.0,0003.94,0005.54,0003.73
2023-11-27 06:15:00,SystemResetWarning,0832.3,4.99,000.00,018.8,018.3,000.0,027.2,020.0,12.2,0000.0,0003.93,0005.49,0003.72
2023-11-27 06:16:00,SystemResetWarning,0832.3,4.99,000.00,018.8,018.2,000.0,027.2,020.0,12.2,0000.0,0003.92,0005.54,0003.71
2023-11-27 06:17:00,SystemResetWarning,0832.3,5.00,000.00,018.8,018.1,000.0,027.2,020.0,12.2,0000.0,0003.91,0005.57,0003.71
2023-11-27 06:18:00,SystemResetWarning,0832.4,5.01,000.00,018.8,018.0,000.0,027.3,020.0,12.2,0000.0,0003.89,0005.45,0003.72
2023-11-27 06:19:00,SystemResetWarning,0832.4,5.01,000.00,018.7,017.9,000.0,027.3,020.0,12.2,0000.0,0003.87,0005.39,0003.72
2023-11-27 06:20:00,SystemResetWarning,0832.5,5.00,000.00,018.7,017.8,000.0,027.3,020.0,12.2,0000.0,0003.86,0005.32,0003.71
2023-11-27 06:21:00,SystemResetWarning,0832.5,4.99,000.00,018.7,017.7,000.0,027.3,020.0,12.2,0000.0,0003.85,0006.58,0003.71
2023-11-27 06:22:00,SystemResetWarning,0832.5,5.00,000.00,018.7,017.7,000.0,027.3,020.0,12.2,0000.0,0003.83,0007.22,0003.71
2023-11-27 06:23:00,SystemResetWarning,0832.5,4.99,000.00,018.7,017.6,000.0,027.3,020.0,12.2,0000.0,0003.83,0007.25,0003.70
2023-11-27 06:24:00,SystemResetWarning,0832.6,5.01,000.00,018.7,017.6,000.0,027.3,020.0,12.2,0000.0,0003.83,0007.28,0003.70
2023-11-27 06:25:00,SystemResetWarning,0832.5,5.01,000.00,018.7,017.5,000.0,027.3,020.0,12.2,0000.0,0003.84,0007.28,0003.71
2023-11-27 06:26:00,SystemResetWarning,0832.5,5.01,000.00,018.7,017.9,000.0,027.2,020.4,12.2,0000.0,0003.83,0007.26,0003.71
2023-11-27 06:27:00,SystemResetWarning,0832.6,4.99,000.00,018.9,018.7,000.0,027.2,020.7,12.1,0000.0,0003.82,0007.18,0003.70
2023-11-27 06:28:00,SystemResetWarning,0832.5,4.99,000.00,019.0,018.9,000.0,027.2,020.6,12.0,0000.0,0003.83,0007.08,0003.70
2023-11-27 06:29:00,SystemResetWarning,0832.5,5.01,000.00,019.0,018.8,000.0,027.2,020.4,12.0,0000.0,0003.85,0007.16,0003.71
2023-11-27 06:30:00,SystemResetWarning,0832.6,5.01,000.00,018.9,018.7,000.0,027.2,020.1,12.0,0000.0,0003.85,0007.16,0003.70
2023-11-27 06:31:00,SystemResetWarning,0832.5,4.99,000.00,018.9,018.5,000.0,027.2,020.0,12.1,0000.0,0003.85,0007.19,0003.70
2023-11-27 06:32:00,SystemResetWarning,0832.5,4.99,000.00,018.9,018.4,000.0,027.2,020.0,12.1,0000.0,0003.84,0006.02,0003.70
2023-11-27 06:33:00,SystemResetWarning,0832.5,5.00,000.00,018.8,018.2,000.0,027.2,020.0,12.1,0000.0,0003.83,0005.04,0003.70
2023-11-27 06:34:00,SystemResetWarning,0832.5,5.00,000.00,018.8,018.1,000.0,027.2,020.0,12.1,0000.0,0003.82,0005.02,0003.70
2023-11-27 06:35:00,SystemResetWarning,0832.6,5.00,000.00,018.8,018.0,000.0,027.3,020.0,12.1,0000.0,0003.81,0004.91,0003.70
2023-11-27 06:36:00,SystemResetWarning,0832.6,5.00,000.00,018.8,017.9,000.0,027.3,020.0,12.1,0000.0,0003.83,0004.97,0003.69
2023-11-27 06:37:00,SystemResetWarning,0832.6,5.01,000.00,018.8,017.9,000.0,027.3,020.0,12.1,0000.0,0003.84,0005.02,0003.69
2023-11-27 06:38:00,SystemResetWarning,0832.6,5.00,000.00,018.8,017.8,000.0,027.3,020.0,12.1,0000.0,0003.85,0005.01,0003.69
2023-11-27 06:39:00,SystemResetWarning,0832.6,5.00,000.00,018.7,017.8,000.0,027.3,020.0,12.2,0000.0,0003.86,0005.13,0003.71
2023-11-27 06:40:00,SystemResetWarning,0832.6,5.00,000.00,018.7,017.8,000.0,027.3,020.0,12.2,0000.0,0003.85,0005.11,0003.70
2023-11-27 06:41:00,SystemResetWarning,0832.6,5.00,000.00,018.7,017.7,000.0,027.3,020.0,12.2,0000.0,0003.87,0005.15,0003.71
2023-11-27 06:42:00,SystemResetWarning,0832.5,5.00,000.00,018.7,017.7,000.0,027.3,020.0,12.2,0000.0,0003.87,0005.13,0003.71
2023-11-27 06:43:00,SystemResetWarning,0832.5,5.00,000.00,018.8,017.9,000.0,027.2,020.3,12.2,0000.0,0003.90,0005.25,0003.72
2023-11-27 06:44:00,SystemResetWarning,0832.6,5.00,000.00,018.9,018.6,000.0,027.2,020.7,12.1,0000.0,0003.92,0005.31,0003.74
2023-11-27 06:45:00,SystemResetWarning,0832.5,4.99,000.00,019.0,018.9,000.0,027.2,020.6,12.0,0000.0,0003.94,0005.37,0003.74
2023-11-27 06:46:00,SystemResetWarning,0832.5,4.99,000.00,018.9,018.8,000.0,027.2,020.3,12.0,0000.0,0003.96,0005.53,0003.75
2023-11-27 06:47:00,SystemResetWarning,0832.5,5.00,000.00,018.9,018.6,000.0,027.2,020.1,12.1,0000.0,0003.95,0005.48,0003.74
2023-11-27 06:48:00,SystemResetWarning,0832.6,5.01,000.00,018.9,018.4,000.0,027.2,020.0,12.1,0000.0,0003.94,0005.45,0003.75
2023-11-27 06:49:00,SystemResetWarning,0832.5,5.01,000.00,018.8,018.3,000.0,027.2,020.0,12.0,0000.0,0003.94,0005.42,0003.75
2023-11-27 06:50:00,SystemResetWarning,0832.5,5.00,000.00,018.8,018.2,000.0,027.3,020.0,12.0,0000.0,0003.92,0005.37,0003.74
2023-11-27 06:51:00,SystemResetWarning,0832.5,5.00,000.00,018.8,018.1,000.0,027.3,020.0,12.0,0000.0,0003.92,0005.40,0003.74
2023-11-27 06:52:00,SystemResetWarning,0832.5,5.00,000.00,018.8,018.0,000.0,027.3,020.0,12.1,0000.0,0003.92,0005.45,0003.74
2023-11-27 06:53:00,SystemResetWarning,0832.5,5.00,000.00,018.8,017.9,000.0,027.3,020.0,12.1,0000.0,0003.91,0005.47,0003.74
2023-11-27 06:54:00,SystemResetWarning,0832.5,5.00,000.00,018.7,017.9,000.0,027.3,020.0,12.1,0000.0,0003.92,0005.44,0003.75
2023-11-27 06:55:00,SystemResetWarning,0832.5,5.00,000.00,018.7,017.8,000.0,027.3,020.0,12.1,0000.0,0003.93,0005.57,0003.75
2023-11-27 06:56:00,SystemResetWarning,0832.5,5.00,000.00,018.7,017.8,000.0,027.3,020.0,12.1,0000.0,0003.93,0006.85,0003.75
2023-11-27 06:57:00,SystemResetWarning,0832.6,5.01,000.00,018.7,017.7,000.0,027.3,020.0,12.1,0000.0,0003.93,0006.81,0003.76
2023-11-27 06:58:00,SystemResetWarning,0832.6,5.01,000.00,018.7,017.7,000.0,027.3,020.0,12.1,0000.0,0003.95,0006.98,0003.77
2023-11-27 06:59:00,SystemResetWarning,0832.6,5.01,000.00,018.8,018.0,000.0,027.2,020.4,12.1,0000.0,0003.96,0007.23,0003.77
